Location: Chateh
(58.6667°N, 118.6000°W)
Time: 08:05:50
(UTC+00:00)

PCSat - Pass Details

Date: 09 December 2023
Orbit: 784 x 792 km, 67.0° (Epoch: 04 March)

Event Time Altitude Azimuth Distance (km) Brightness Sun altitude
Exits shadow 12:07:37 50° 70° (ENE) 1,009 10.3 -32.1°
Drops below altitude 10° 12:11:41 10° 49° (NE) 2,363 12.7 -31.6°
Sets 12:14:07 0° 48° (NE) 3,297 13.5 -31.3°
